AAL2217 KLAX-KJFK

Flight info

Callsign AAL2217
Flight time N/A
Altitude 39000
Route DOTSS2 CLEEE PKE GUP KK45A ROKNE BUM VHP KI63Q KLYNE Q29 WWSHR JHW Q476 WLKES PUCKY1
Aircraft B772/H-SDE2E3FGHIJ5LORVWXY/LB1D1

Departure

Time 2026-04-25 23:31
Airport Los Angeles International Airport (KLAX)

Arrival

Time N/A
Airport John F. Kennedy International Airport (KJFK)
Time Latitude Longitude Altitude Speed Heading
2026-04-25 22:59 33.94395 -118.41129 97 ft 0 kts 85°
2026-04-25 23:04 33.94395 -118.41130 97 ft 0 kts 85°
2026-04-25 23:14 33.94395 -118.41131 97 ft 0 kts 85°
2026-04-25 23:16 33.94394 -118.41137 97 ft 2 kts 85°
2026-04-25 23:16 33.94392 -118.41160 97 ft 3 kts 84°
2026-04-25 23:17 33.94390 -118.41184 97 ft 3 kts 84°
2026-04-25 23:17 33.94388 -118.41204 96 ft 2 kts 84°
2026-04-25 23:17 33.94389 -118.41223 95 ft 3 kts 126°
2026-04-25 23:17 33.94403 -118.41238 97 ft 3 kts 159°
2026-04-25 23:18 33.94420 -118.41243 96 ft 2 kts 172°
2026-04-25 23:18 33.94422 -118.41244 96 ft 3 kts 173°
2026-04-25 23:20 33.94415 -118.41243 97 ft 9 kts 173°
2026-04-25 23:20 33.94308 -118.41227 98 ft 16 kts 173°
2026-04-25 23:20 33.94194 -118.41210 98 ft 16 kts 173°
2026-04-25 23:20 33.94080 -118.41193 98 ft 16 kts 173°
2026-04-25 23:21 33.93978 -118.41178 98 ft 6 kts 173°
2026-04-25 23:21 33.93932 -118.41171 99 ft 7 kts 173°
2026-04-25 23:21 33.93892 -118.41166 98 ft 0 kts 173°
2026-04-25 23:21 33.93873 -118.41163 99 ft 12 kts 173°
2026-04-25 23:22 33.93795 -118.41142 99 ft 11 kts 148°
2026-04-25 23:22 33.93772 -118.41055 99 ft 11 kts 89°
2026-04-25 23:22 33.93780 -118.40961 98 ft 11 kts 83°
2026-04-25 23:23 33.93799 -118.40779 101 ft 11 kts 81°
2026-04-25 23:23 33.93809 -118.40689 98 ft 11 kts 84°
2026-04-25 23:23 33.93816 -118.40600 99 ft 11 kts 83°
2026-04-25 23:23 33.93826 -118.40510 102 ft 11 kts 83°
2026-04-25 23:24 33.93834 -118.40420 100 ft 11 kts 83°
2026-04-25 23:24 33.93844 -118.40331 100 ft 11 kts 83°
2026-04-25 23:24 33.93855 -118.40230 102 ft 14 kts 83°
2026-04-25 23:24 33.93867 -118.40116 103 ft 14 kts 83°
2026-04-25 23:25 33.93878 -118.40002 101 ft 14 kts 83°
2026-04-25 23:25 33.93890 -118.39889 102 ft 14 kts 83°
2026-04-25 23:25 33.93902 -118.39762 101 ft 15 kts 83°
2026-04-25 23:25 33.93915 -118.39642 99 ft 14 kts 83°
2026-04-25 23:26 33.93927 -118.39523 102 ft 14 kts 81°
2026-04-25 23:26 33.93939 -118.39404 101 ft 14 kts 83°
2026-04-25 23:26 33.93951 -118.39284 99 ft 15 kts 82°
2026-04-25 23:26 33.93969 -118.39116 98 ft 21 kts 83°
2026-04-25 23:27 33.93986 -118.38942 98 ft 20 kts 83°
2026-04-25 23:27 33.94003 -118.38775 100 ft 20 kts 83°
2026-04-25 23:27 33.94020 -118.38607 100 ft 20 kts 83°
2026-04-25 23:27 33.94038 -118.38441 103 ft 20 kts 83°
2026-04-25 23:28 33.94054 -118.38278 103 ft 18 kts 83°
2026-04-25 23:28 33.94067 -118.38155 98 ft 14 kts 83°
2026-04-25 23:28 33.94068 -118.38140 98 ft 0 kts 83°
2026-04-25 23:28 33.94075 -118.38054 97 ft 13 kts 94°
2026-04-25 23:29 33.94073 -118.38045 97 ft 1 kts 101°
2026-04-25 23:29 33.94071 -118.38041 97 ft 0 kts 113°
2026-04-25 23:29 33.94043 -118.38012 99 ft 10 kts 154°
2026-04-25 23:29 33.93987 -118.38048 100 ft 8 kts 246°
2026-04-25 23:30 33.93974 -118.38123 98 ft 30 kts 262°
2026-04-25 23:30 33.93917 -118.38666 101 ft 99 kts 263°
2026-04-25 23:30 33.93801 -118.39741 108 ft 157 kts 264°
2026-04-25 23:30 33.93701 -118.41186 355 ft 190 kts 261°
2026-04-25 23:31 33.93585 -118.42807 1158 ft 193 kts 264°
2026-04-25 23:31 33.93485 -118.44362 2159 ft 180 kts 263°
2026-04-25 23:31 33.93343 -118.45851 2805 ft 182 kts 263°
2026-04-25 23:31 33.93182 -118.47456 3025 ft 205 kts 262°
2026-04-25 23:32 33.93004 -118.49244 3356 ft 221 kts 263°
2026-04-25 23:32 33.92817 -118.51105 3903 ft 228 kts 263°
2026-04-25 23:32 33.92625 -118.53012 4507 ft 231 kts 263°
2026-04-25 23:32 33.92301 -118.54913 4948 ft 236 kts 244°
2026-04-25 23:33 33.91137 -118.56281 5551 ft 242 kts 205°
2026-04-25 23:33 33.89430 -118.56540 5959 ft 261 kts 170°
2026-04-25 23:33 33.87670 -118.55867 6281 ft 270 kts 167°
2026-04-25 23:33 33.85819 -118.55365 6824 ft 274 kts 172°
2026-04-25 23:34 33.83943 -118.54962 7544 ft 273 kts 173°
2026-04-25 23:34 33.82071 -118.54579 8248 ft 274 kts 173°
2026-04-25 23:34 33.80190 -118.54198 8915 ft 275 kts 173°
2026-04-25 23:34 33.78295 -118.53815 9563 ft 277 kts 174°
2026-04-25 23:35 33.76386 -118.53429 10181 ft 280 kts 174°
2026-04-25 23:35 33.74406 -118.53033 10382 ft 299 kts 174°
2026-04-25 23:35 33.72293 -118.52588 10523 ft 316 kts 170°
2026-04-25 23:35 33.70239 -118.51407 10686 ft 344 kts 143°
2026-04-25 23:36 33.68760 -118.49072 11197 ft 364 kts 118°
2026-04-25 23:36 33.68164 -118.47187 11519 ft 369 kts 111°
2026-04-25 23:36 33.67064 -118.43200 12484 ft 382 kts 113°
2026-04-25 23:36 33.66183 -118.40161 13321 ft 389 kts 114°
2026-04-25 23:37 33.65300 -118.37060 14135 ft 396 kts 111°
2026-04-25 23:37 33.64691 -118.33794 14924 ft 406 kts 104°
2026-04-25 23:37 33.64395 -118.30396 15793 ft 413 kts 97°
2026-04-25 23:37 33.64370 -118.26921 16593 ft 421 kts 94°
2026-04-25 23:38 33.64390 -118.23379 17014 ft 425 kts 94°
2026-04-25 23:38 33.64418 -118.19829 16982 ft 425 kts 94°
2026-04-25 23:38 33.64442 -118.16282 16998 ft 424 kts 94°
2026-04-25 23:38 33.64455 -118.12742 16978 ft 424 kts 94°
2026-04-25 23:39 33.64461 -118.09209 16998 ft 423 kts 94°
2026-04-25 23:39 33.64461 -118.05676 17000 ft 423 kts 94°
2026-04-25 23:39 33.64457 -118.02134 17263 ft 429 kts 95°
2026-04-25 23:39 33.64450 -117.98536 18175 ft 434 kts 95°
2026-04-25 23:40 33.64443 -117.94904 18975 ft 437 kts 95°
2026-04-25 23:40 33.64436 -117.91229 19657 ft 444 kts 95°
2026-04-25 23:40 33.64428 -117.87491 20319 ft 452 kts 95°
2026-04-25 23:40 33.64419 -117.83701 21011 ft 457 kts 95°
2026-04-25 23:41 33.64542 -117.79854 21760 ft 466 kts 90°
2026-04-25 23:41 33.64993 -117.75969 22470 ft 475 kts 82°
2026-04-25 23:41 33.65736 -117.72076 23115 ft 482 kts 81°
2026-04-25 23:41 33.66530 -117.68138 23735 ft 488 kts 80°
2026-04-25 23:42 33.67333 -117.64156 24336 ft 493 kts 81°
2026-04-25 23:42 33.68130 -117.60139 24942 ft 497 kts 81°
2026-04-25 23:42 33.68920 -117.56083 25554 ft 501 kts 81°
2026-04-25 23:42 33.69707 -117.51990 26119 ft 505 kts 81°
2026-04-25 23:43 33.70494 -117.47859 26640 ft 509 kts 82°
2026-04-25 23:43 33.71018 -117.45104 26936 ft 512 kts 82°
2026-04-25 23:43 33.71811 -117.40920 27387 ft 516 kts 82°
2026-04-25 23:43 33.72610 -117.36703 27832 ft 520 kts 82°
2026-04-25 23:44 33.73418 -117.32451 28271 ft 524 kts 82°
2026-04-25 23:44 33.74228 -117.28166 28728 ft 527 kts 82°
2026-04-25 23:44 33.74847 -117.23840 29150 ft 526 kts 88°
2026-04-25 23:44 33.75143 -117.19468 29568 ft 524 kts 95°
2026-04-25 23:45 33.75078 -117.15098 29943 ft 523 kts 99°
2026-04-25 23:45 33.74926 -117.10717 30312 ft 526 kts 99°
2026-04-25 23:45 33.74791 -117.06309 30610 ft 530 kts 98°
2026-04-25 23:45 33.74687 -117.01862 30893 ft 534 kts 98°
2026-04-25 23:46 33.74597 -116.97392 31165 ft 537 kts 98°
2026-04-25 23:46 33.74506 -116.92886 31428 ft 540 kts 98°
2026-04-25 23:46 33.74407 -116.88360 31672 ft 543 kts 98°
2026-04-25 23:46 33.74304 -116.83827 31935 ft 543 kts 98°
2026-04-25 23:47 33.74200 -116.79294 32368 ft 542 kts 98°
2026-04-25 23:47 33.74095 -116.74768 32728 ft 542 kts 98°
2026-04-25 23:47 33.73988 -116.70239 33009 ft 544 kts 98°
2026-04-25 23:47 33.73878 -116.65688 33315 ft 545 kts 98°
2026-04-25 23:48 33.73767 -116.61141 33656 ft 544 kts 98°
2026-04-25 23:48 33.73657 -116.56593 33944 ft 544 kts 98°
2026-04-25 23:48 33.73545 -116.52047 34135 ft 546 kts 98°
2026-04-25 23:48 33.73427 -116.47465 34298 ft 549 kts 98°
2026-04-25 23:49 33.73309 -116.42892 34669 ft 547 kts 98°
2026-04-25 23:49 33.73192 -116.38326 34961 ft 547 kts 98°
2026-04-25 23:49 33.73069 -116.33748 35140 ft 550 kts 98°
2026-04-25 23:49 33.72944 -116.29150 35403 ft 551 kts 98°
2026-04-25 23:50 33.72819 -116.24550 35708 ft 550 kts 98°
2026-04-25 23:50 33.72693 -116.19953 35948 ft 552 kts 98°
2026-04-25 23:50 33.72565 -116.15334 36205 ft 553 kts 98°
2026-04-25 23:50 33.72436 -116.10724 36492 ft 552 kts 98°
2026-04-25 23:51 33.72304 -116.06117 36804 ft 552 kts 98°
2026-04-25 23:51 33.72172 -116.01511 37115 ft 552 kts 98°
2026-04-25 23:51 33.72043 -115.96905 37348 ft 552 kts 98°
2026-04-25 23:51 33.71911 -115.92295 37596 ft 552 kts 98°
2026-04-25 23:52 33.71780 -115.87686 37877 ft 552 kts 98°
2026-04-25 23:52 33.71649 -115.83082 38147 ft 552 kts 98°
2026-04-25 23:52 33.71518 -115.78537 38426 ft 552 kts 98°
2026-04-25 23:52 33.71384 -115.73932 38648 ft 552 kts 98°
2026-04-25 23:53 33.71250 -115.69322 38754 ft 554 kts 98°
2026-04-25 23:53 33.70975 -115.60059 38789 ft 555 kts 98°
2026-04-25 23:54 33.70695 -115.50793 38812 ft 555 kts 98°
2026-04-25 23:54 33.70413 -115.41530 38827 ft 554 kts 98°
2026-04-25 23:55 33.70131 -115.32282 38835 ft 554 kts 98°
2026-04-25 23:55 33.69847 -115.23025 38817 ft 555 kts 98°
2026-04-25 23:56 33.69558 -115.13744 38809 ft 557 kts 98°
2026-04-25 23:56 33.69264 -115.04441 38819 ft 558 kts 98°
2026-04-25 23:57 33.68967 -114.95131 38797 ft 558 kts 98°
2026-04-25 23:57 33.68669 -114.85824 38803 ft 557 kts 98°
2026-04-25 23:58 33.68372 -114.76537 38808 ft 556 kts 98°
2026-04-25 23:58 33.68075 -114.67272 38807 ft 555 kts 98°
2026-04-25 23:59 33.67776 -114.58000 38798 ft 556 kts 98°
2026-04-25 23:59 33.67474 -114.48724 38804 ft 557 kts 98°
2026-04-26 00:00 33.67168 -114.39418 38813 ft 559 kts 99°
2026-04-26 00:00 33.66856 -114.30096 38811 ft 559 kts 98°
2026-04-26 00:01 33.66542 -114.20771 38813 ft 559 kts 98°
2026-04-26 00:01 33.66227 -114.11448 38811 ft 559 kts 98°
2026-04-26 00:02 33.65914 -114.02180 38800 ft 559 kts 98°
2026-04-26 00:02 33.65596 -113.92805 38829 ft 558 kts 98°
2026-04-26 00:03 33.65280 -113.83564 38862 ft 558 kts 98°
2026-04-26 00:03 33.64960 -113.74251 38896 ft 558 kts 98°
2026-04-26 00:04 33.64637 -113.64941 38921 ft 559 kts 98°
2026-04-26 00:04 33.64312 -113.55620 38917 ft 559 kts 98°
2026-04-26 00:05 33.63984 -113.46298 38905 ft 559 kts 98°
2026-04-26 00:05 33.63652 -113.36970 38814 ft 559 kts 98°
2026-04-26 00:06 33.63319 -113.27636 38819 ft 560 kts 98°
2026-04-26 00:06 33.62983 -113.18286 38820 ft 561 kts 98°
2026-04-26 00:07 33.62643 -113.08939 38805 ft 561 kts 98°
2026-04-26 00:07 33.62301 -112.99592 38828 ft 561 kts 98°
2026-04-26 00:08 33.61956 -112.90237 38840 ft 561 kts 98°
2026-04-26 00:08 33.61608 -112.80865 38835 ft 562 kts 98°
2026-04-26 00:09 33.61257 -112.71490 38834 ft 563 kts 98°
2026-04-26 00:09 33.60903 -112.62107 38843 ft 563 kts 98°
2026-04-26 00:10 33.60661 -112.52714 38811 ft 567 kts 88°
2026-04-26 00:10 33.61502 -112.48074 38834 ft 575 kts 68°
2026-04-26 00:10 33.63405 -112.43872 38823 ft 573 kts 49°
2026-04-26 00:10 33.66124 -112.40419 38868 ft 565 kts 33°
2026-04-26 00:11 33.69353 -112.37816 38841 ft 555 kts 19°
2026-04-26 00:11 33.75901 -112.32972 38810 ft 565 kts 38°
2026-04-26 00:12 33.80916 -112.25658 38843 ft 571 kts 56°
2026-04-26 00:12 33.85003 -112.17473 38842 ft 571 kts 57°
2026-04-26 00:13 33.89151 -112.09305 38839 ft 572 kts 56°
2026-04-26 00:13 33.93316 -112.01205 38850 ft 573 kts 56°
2026-04-26 00:14 33.97515 -111.93046 38846 ft 573 kts 56°
2026-04-26 00:14 34.01706 -111.84868 38840 ft 573 kts 56°
2026-04-26 00:15 34.05880 -111.76695 38864 ft 572 kts 56°
2026-04-26 00:15 34.10046 -111.68515 38851 ft 572 kts 56°
2026-04-26 00:16 34.14201 -111.60339 38867 ft 571 kts 56°
2026-04-26 00:16 34.18350 -111.52160 38972 ft 571 kts 56°
2026-04-26 00:17 34.22490 -111.43979 39021 ft 570 kts 56°
2026-04-26 00:17 34.26620 -111.35800 39021 ft 570 kts 56°
2026-04-26 00:18 34.30749 -111.27604 39010 ft 570 kts 56°
2026-04-26 00:18 34.34871 -111.19400 38987 ft 571 kts 56°
2026-04-26 00:19 34.38990 -111.11182 38933 ft 571 kts 56°
2026-04-26 00:19 34.43097 -111.02971 38901 ft 568 kts 57°
2026-04-26 00:20 34.47180 -110.94793 38874 ft 566 kts 57°
2026-04-26 00:20 34.51245 -110.86628 38878 ft 565 kts 57°
2026-04-26 00:21 34.55297 -110.78472 38868 ft 564 kts 56°
2026-04-26 00:21 34.59341 -110.70311 38865 ft 564 kts 57°
2026-04-26 00:22 34.61628 -110.65689 38868 ft 564 kts 57°
2026-04-26 00:22 34.64321 -110.60238 38863 ft 565 kts 57°
2026-04-26 00:23 34.68318 -110.52133 38854 ft 566 kts 57°
2026-04-26 00:23 34.68889 -110.50970 38858 ft 566 kts 57°
2026-04-26 00:24 34.72635 -110.43353 38848 ft 567 kts 57°
2026-04-26 00:24 34.76680 -110.35112 38863 ft 568 kts 57°
2026-04-26 00:25 34.80730 -110.26840 38845 ft 569 kts 57°
2026-04-26 00:25 34.84775 -110.18555 38837 ft 570 kts 57°
2026-04-26 00:26 34.88819 -110.10256 38823 ft 569 kts 57°
2026-04-26 00:26 34.92198 -110.03305 38830 ft 569 kts 57°
2026-04-26 00:27 34.96225 -109.95002 38831 ft 569 kts 57°
2026-04-26 00:27 35.00246 -109.86693 38822 ft 569 kts 57°
2026-04-26 00:28 35.04262 -109.78374 38811 ft 569 kts 57°
2026-04-26 00:28 35.08240 -109.70115 38831 ft 568 kts 57°
2026-04-26 00:29 35.12265 -109.61736 38863 ft 568 kts 57°
2026-04-26 00:29 35.16259 -109.53404 38845 ft 568 kts 57°
2026-04-26 00:30 35.20242 -109.45074 38812 ft 567 kts 57°
2026-04-26 00:30 35.24212 -109.36751 38842 ft 566 kts 57°
2026-04-26 00:31 35.28173 -109.28427 38836 ft 566 kts 57°
2026-04-26 00:31 35.32125 -109.20102 38843 ft 565 kts 57°
2026-04-26 00:32 35.36070 -109.11768 38867 ft 566 kts 57°
2026-04-26 00:32 35.41969 -108.99271 38966 ft 564 kts 57°
2026-04-26 00:33 35.45884 -108.90943 39042 ft 565 kts 58°
2026-04-26 00:33 35.49151 -108.82162 39079 ft 568 kts 70°
2026-04-26 00:34 35.51593 -108.72944 38807 ft 568 kts 71°
2026-04-26 00:34 35.53999 -108.63707 38799 ft 567 kts 71°
2026-04-26 00:35 35.56443 -108.54504 38795 ft 566 kts 71°
2026-04-26 00:35 35.58907 -108.45323 38820 ft 566 kts 71°
2026-04-26 00:36 35.61364 -108.36141 38815 ft 565 kts 71°
2026-04-26 00:36 35.63808 -108.26964 38819 ft 566 kts 71°
2026-04-26 00:37 35.66247 -108.17765 38804 ft 566 kts 71°
2026-04-26 00:37 35.68680 -108.08556 38815 ft 566 kts 71°
2026-04-26 00:38 35.71109 -107.99337 38821 ft 566 kts 71°
2026-04-26 00:38 35.73530 -107.90111 38821 ft 567 kts 71°
2026-04-26 00:39 35.75944 -107.80878 38821 ft 567 kts 71°
2026-04-26 00:39 35.78352 -107.71636 38829 ft 567 kts 71°
2026-04-26 00:40 35.80754 -107.62384 38828 ft 567 kts 71°
2026-04-26 00:40 35.83149 -107.53128 38822 ft 567 kts 71°
2026-04-26 00:41 35.85535 -107.43874 38835 ft 566 kts 71°
2026-04-26 00:41 35.87911 -107.34621 38821 ft 566 kts 71°
2026-04-26 00:42 35.90283 -107.25356 38829 ft 567 kts 71°
2026-04-26 00:42 35.92649 -107.16080 38818 ft 567 kts 71°
2026-04-26 00:43 35.94990 -107.06868 38822 ft 567 kts 71°
2026-04-26 00:43 35.97342 -106.97575 38810 ft 567 kts 71°
2026-04-26 00:44 35.99688 -106.88277 38818 ft 568 kts 71°
2026-04-26 00:44 36.02046 -106.78897 38801 ft 568 kts 71°
2026-04-26 00:45 36.04363 -106.69645 38785 ft 567 kts 71°
2026-04-26 00:45 36.06683 -106.60340 38812 ft 567 kts 71°
2026-04-26 00:46 36.08997 -106.51032 38842 ft 566 kts 71°
2026-04-26 00:46 36.11301 -106.41734 38851 ft 566 kts 71°
2026-04-26 00:47 36.13594 -106.32444 38833 ft 563 kts 71°
2026-04-26 00:47 36.15870 -106.23188 38812 ft 563 kts 71°
2026-04-26 00:48 36.18139 -106.13920 38775 ft 562 kts 71°
2026-04-26 00:48 36.20396 -106.04670 38737 ft 562 kts 71°
2026-04-26 00:49 36.22648 -105.95405 38751 ft 562 kts 71°
2026-04-26 00:49 36.24888 -105.86155 38759 ft 560 kts 71°
2026-04-26 00:50 36.27121 -105.76905 38758 ft 560 kts 71°
2026-04-26 00:50 36.29349 -105.67638 38780 ft 561 kts 71°
2026-04-26 00:51 36.31568 -105.58370 38871 ft 560 kts 71°
2026-04-26 00:51 36.33773 -105.49120 38951 ft 559 kts 71°
2026-04-26 00:52 36.35970 -105.39876 39013 ft 558 kts 71°
2026-04-26 00:52 36.38154 -105.30655 39034 ft 557 kts 71°
2026-04-26 00:53 36.40330 -105.21428 39035 ft 557 kts 71°
2026-04-26 00:53 36.42500 -105.12196 38979 ft 557 kts 71°
2026-04-26 00:54 36.44660 -105.02972 38924 ft 557 kts 71°